Weather History for KLHQ - November, 2011

Change the Weather History Date:

Saturday, November 26, 2011

  Actual Average Record
Temperature  
Mean Temperature 50 °F -  
Max Temperature 63 °F 48 °F 66 °F (1987)
Min Temperature 36 °F 28 °F 10 °F (1938)
Degree Days  
Heating Degree Days 16    
Moisture  
Dew Point 39 °F    
Average Humidity 60    
Maximum Humidity 86    
Minimum Humidity 50    
Precipitation  
Precipitation 0.00 in - - ()
Sea Level Pressure  
Sea Level Pressure 30.12 in    
Wind  
Wind Speed 6 mph (South)    
Max Wind Speed 12 mph    
Max Gust Speed -    
Visibility 10 miles    
Events      
Averages and records for this station are not official NWS values.
T = Trace of Precipitation, MM = Missing Value Source: NWS Daily Summary

Daily Weather History Graph

Daily Weather History Graph

Search for Another Location

Airport or City:

Trip Planner

Search our weather history database for the weather conditions in past years. The results will help you decide how hot, cold, wet, or windy it might be!

Date:

Astronomy

Nov. 26, 2011 Rise Set
Actual Time 7:27 AM EST 5:08 PM EST
Civil Twilight 6:57 AM EST 5:37 PM EST
Nautical Twilight 6:24 AM EST 6:11 PM EST
Astronomical Twilight 5:51 AM EST 6:43 PM EST
Moon 8:56 AM EST 6:38 PM EST
Length of Visible Light 10h 40m
Length of Day
9h 41m
Waxing Crescent, 3% of the Moon is Illuminated
Nov 26
Waxing Crescent
Dec 2
First Quarter
Dec 10
Full
Dec 17
Last Quarter
Dec 24
New

Hourly Weather History & Observations

Time (EST) Temp. Windchill Dew Point Humidity Pressure Visibility Wind Dir Wind Speed Gust Speed Precip Events Conditions
1:53 AM 36.0 °F - 32.0 °F 86% 30.15 in 10.0 mi Calm Calm - N/A   Clear
2:53 AM 37.0 °F 34.5 °F 32.0 °F 82% 30.17 in 10.0 mi SE 3.5 mph - N/A   Clear
3:53 AM 45.0 °F 41.8 °F 32.0 °F 60% 30.17 in 10.0 mi South 5.8 mph - N/A   Clear
4:53 AM 48.0 °F - 32.0 °F 54% 30.17 in 10.0 mi SSW 5.8 mph - N/A   Clear
5:53 AM 46.9 °F - 32.0 °F 56% 30.17 in 10.0 mi South 5.8 mph - N/A   Clear
7:53 AM 48.0 °F - 34.0 °F 58% 30.19 in 10.0 mi South 5.8 mph - N/A   Clear
8:53 AM 48.9 °F - 36.0 °F 61% 30.20 in 10.0 mi SSE 4.6 mph - N/A   Mostly Cloudy
10:53 AM 57.0 °F - 39.9 °F 53% 30.19 in 10.0 mi SSW 9.2 mph - N/A   Clear
11:53 AM 60.1 °F - 42.1 °F 51% 30.17 in 10.0 mi SSW 11.5 mph - N/A   Scattered Clouds
12:53 PM 61.0 °F - 43.0 °F 52% 30.14 in 10.0 mi SW 10.4 mph - N/A   Partly Cloudy
1:53 PM 63.0 °F - 44.1 °F 50% 30.12 in 10.0 mi South 11.5 mph - N/A   Mostly Cloudy
2:53 PM 63.0 °F - 44.1 °F 50% 30.09 in 10.0 mi South 10.4 mph - N/A   Clear
3:53 PM 63.0 °F - 44.1 °F 50% 30.08 in 10.0 mi SSW 6.9 mph - N/A   Clear
4:53 PM 61.0 °F - 43.0 °F 52% 30.07 in 10.0 mi South 8.1 mph - N/A   Clear
5:53 PM 57.9 °F - 43.0 °F 58% 30.06 in 10.0 mi SSE 8.1 mph - N/A   Clear
7:53 PM 55.9 °F - 44.1 °F 64% 30.03 in 10.0 mi SSE 9.2 mph - N/A   Clear
8:53 PM 55.0 °F - 43.0 °F 64% 30.03 in 10.0 mi SE 8.1 mph - N/A   Clear
9:53 PM 53.1 °F - 43.0 °F 69% 30.01 in 10.0 mi SE 5.8 mph - N/A   Clear
11:53 PM 54.0 °F - 43.0 °F 66% 29.99 in 10.0 mi SSE 8.1 mph - N/A   Clear